Augusta

United States     33˚28′27″N   81˚57′48″W
temp.,
°C
wind,
m/s
gust,
m/s
humid.,
%
clouds,
%
prec.,
mm/h
press.,
hPa
HPBL,
m
28 november, sat
sat2801:00+17˚w2448100 0.0 1017118
04:00+15˚w3673100 0.7 1017300
07:00+15˚n1283100 1.9 1017182
10:00+15˚e1374100 0.8 1018286
13:00+18˚e236198 0.8 1018705
16:00+18˚ese336636 0.0 1017714
19:00+16˚ese258066 0.0 1019275
22:00+14˚se2389100 0.0 1020177
29 november, sun
sun2901:00+14˚ne129097 0.0 1020117
04:00+13˚ene2586100 0.0 1020221
07:00+14˚ene3678100 0.0 1020456
10:00+15˚e3673100 0.0 1021414
13:00+16˚ene3569100 0.0 1018480
16:00+16˚ene3674100 0.1 1016484
19:00+15˚e3683100 0.9 1015382
22:00+15˚e2494100 4.9 1012244
30 november, mon
mon3001:00+16˚sse51292100 10.0 1008657
04:00+16˚s41495100 10.1 1004873
07:00+17˚wsw5118988 10.9 1004852
10:00+15˚w6116663 0.0 1005772
13:00+16˚w7105331 0.0 10051275
16:00+13˚w7105447 0.0 10061403
19:00+10˚w7125271 0.0 10081451
22:00+7˚w7126441 0.1 10101173
1 december, tue
tue101:00+4˚w8135850 0.2 10121116
04:00+2˚w712580 0.0 10131025
07:00+2˚w612600 0.0 1016815
10:00+4˚w610480 0.0 10181065
13:00+7˚w610340 0.0 10181328
16:00+8˚w69310 0.0 10171323
19:00+6˚w510370 0.0 1020944
22:00+5˚w410390 0.0 1022715
2 december, wed
wed201:00+3˚wnw39400 0.0 1023471
04:00+3˚wnw39420 0.0 1023375
07:00+2˚wnw38450 0.0 1026300
10:00+7˚w25350 0.0 1027397
13:00+13˚w34240 0.0 1026738
16:00+13˚w24280 0.0 1025693
19:00+9˚wsw12410 0.0 102755
22:00+8˚sw12450 0.0 102846